Weather History for Tomahawk, WI

Change the Weather History Date:

Friday, June 14, 2013

  Actual Average (KRHI) Record (KRHI)
Temperature  
Mean Temperature 56 °F 62 °F  
Max Temperature 74 °F 74 °F 93 °F (1987)
Min Temperature 38 °F 50 °F 33 °F (1999)
Degree Days  
Heating Degree Days 9 4  
Month to date heating degree days 86  
Since 1 June heating degree days 86  
Since 1 July heating degree days 8972  
Cooling Degree Days 0 1  
Month to date cooling degree days 14  
Year to date cooling degree days 26  
Since 1 June cooling degree days 14  
Growing Degree Days 6 (Base 50)    
Moisture  
Dew Point 46 °F    
Average Humidity 72    
Maximum Humidity 97    
Minimum Humidity 38    
Precipitation  
Precipitation 0.00 in 0.13 in 2.00 in (1930)
Month to date precipitation 1.78  
Year to date precipitation 11.46  
Snow  
Snow 0.00 in - 0.00 in ()
Month to date snowfall  
Since 1 June snowfall  
Since 1 July snowfall  
Snow Depth -    
Sea Level Pressure  
Sea Level Pressure 30.11 in    
Wind  
Wind Speed 1 mph (SSE)    
Max Wind Speed 7 mph    
Max Gust Speed -    
Visibility 8 miles    
Events Fog , Rain    
T = Trace of Precipitation, MM = Missing Value Source: NWS Daily Summary

Daily Weather History Graph

Daily Weather History Graph

Search for Another Location

Airport:

Trip Planner

Search our weather history database for the weather conditions in past years. The results will help you decide how hot, cold, wet, or windy it might be!

Date:

Astronomy

Jun. 14, 2013 Rise Set
Actual Time 5:10 AM CDT 8:49 PM CDT
Civil Twilight 4:32 AM CDT 9:27 PM CDT
Nautical Twilight 3:41 AM CDT 10:17 PM CDT
Astronomical Twilight 2:33 AM CDT 11:26 PM CDT
Moon 10:59 AM CDT (6/14) No Moon Set
Length of Visible Light 16h 55m
Length of Day
15h 39m
Waxing Crescent, 30% of the Moon is Illuminated
Jun 14
Waxing Crescent
Jun 16
First Quarter
Jun 23
Full
Jun 29
Last Quarter
Jul 8
New

Hourly Weather History & Observations

Time (CDT) Temp. Dew Point Humidity Pressure Visibility Wind Dir Wind Speed Gust Speed Precip Events Conditions
12:15 AM 48.2 °F 46.8 °F 95% 30.15 in 10.0 mi Calm Calm - N/A   Clear
12:35 AM 45.7 °F 44.2 °F 95% 30.15 in 10.0 mi Calm Calm - N/A   Clear
12:55 AM 46.4 °F 45.3 °F 96% 30.15 in 10.0 mi Calm Calm - N/A   Clear
1:15 AM 46.4 °F 44.8 °F 94% 30.14 in 7.0 mi Calm Calm - N/A   Clear
1:35 AM 44.4 °F 43.0 °F 95% 30.14 in 10.0 mi Calm Calm - N/A   Clear
1:55 AM 43.9 °F 42.8 °F 96% 30.14 in 10.0 mi Calm Calm - N/A   Clear
2:15 AM 43.0 °F 41.9 °F 96% 30.14 in 10.0 mi Calm Calm - N/A   Clear
2:35 AM 41.5 °F 40.3 °F 95% 30.14 in 10.0 mi Calm Calm - N/A   Clear
2:55 AM 42.1 °F 40.8 °F 95% 30.14 in 10.0 mi Calm Calm - N/A   Clear
3:15 AM 41.0 °F 39.7 °F 95% 30.15 in 0.5 mi Calm Calm - N/A Fog Fog
3:35 AM 41.4 °F 40.3 °F 96% 30.14 in 2.0 mi Calm Calm - N/A   Clear
3:55 AM 40.3 °F 39.2 °F 96% 30.14 in 3.0 mi Calm Calm - N/A   Clear
4:15 AM 40.5 °F 39.4 °F 96% 30.15 in 1.5 mi Calm Calm - N/A   Mist
4:35 AM 38.5 °F 37.4 °F 96% 30.15 in 5.0 mi Calm Calm - N/A   Clear
4:55 AM 40.1 °F 39.2 °F 97% 30.15 in 1.0 mi Calm Calm - N/A   Mist
5:15 AM 38.5 °F 37.4 °F 96% 30.15 in 0.2 mi Calm Calm - N/A Fog Fog
5:35 AM 38.3 °F 37.4 °F 97% 30.15 in 0.2 mi Calm Calm - N/A Fog Fog
5:55 AM 38.7 °F 37.6 °F 96% 30.16 in 0.5 mi Calm Calm - N/A Fog Fog
6:15 AM 40.6 °F 39.7 °F 97% 30.17 in 2.0 mi Calm Calm - N/A   Clear
6:35 AM 44.1 °F 43.2 °F 97% 30.17 in 10.0 mi Calm Calm - N/A   Clear
6:55 AM 47.3 °F 46.4 °F 97% 30.17 in 10.0 mi Calm Calm - N/A   Clear
7:15 AM 50.2 °F 49.3 °F 97% 30.15 in 10.0 mi Calm Calm - N/A   Clear
7:35 AM 52.7 °F 51.6 °F 96% 30.16 in 10.0 mi East 4.6 mph - N/A   Clear
7:55 AM 54.3 °F 51.4 °F 90% 30.15 in 10.0 mi East 6.9 mph - N/A   Clear
8:15 AM 57.7 °F 48.7 °F 72% 30.16 in 10.0 mi East 3.5 mph - N/A   Clear
8:35 AM 59.9 °F 47.7 °F 64% 30.17 in 10.0 mi Calm Calm - N/A   Clear
8:55 AM 61.5 °F 47.7 °F 60% 30.17 in 10.0 mi South 3.5 mph - N/A   Clear
9:15 AM 62.6 °F 46.8 °F 56% 30.16 in 10.0 mi Calm Calm - N/A   Clear
9:35 AM 63.5 °F 47.3 °F 56% 30.17 in 10.0 mi SSE 3.5 mph - N/A   Clear
9:55 AM 65.3 °F 45.7 °F 49% 30.16 in 10.0 mi Calm Calm - N/A   Clear
10:15 AM 65.7 °F 47.5 °F 52% 30.16 in 10.0 mi Calm Calm - N/A   Clear
10:35 AM 67.3 °F 46.6 °F 47% 30.16 in 10.0 mi ESE 4.6 mph - N/A   Clear
10:55 AM 67.3 °F 45.3 °F 45% 30.15 in 10.0 mi SSW 3.5 mph - N/A   Clear
11:15 AM 68.9 °F 44.6 °F 42% 30.14 in 10.0 mi Calm Calm - N/A   Clear
11:35 AM 68.2 °F 43.9 °F 41% 30.14 in 10.0 mi Calm Calm - N/A   Clear
12:15 PM 69.1 °F 45.5 °F 43% 30.13 in 10.0 mi SSE 3.5 mph - N/A   Clear
12:55 PM 71.2 °F 45.7 °F 40% 30.12 in 10.0 mi SSE 3.5 mph - N/A   Clear
1:35 PM 71.8 °F 48.9 °F 44% 30.11 in 10.0 mi SSE 5.8 mph - N/A   Clear
1:55 PM 72.1 °F 48.2 °F 43% 30.11 in 10.0 mi SE 4.6 mph - N/A   Clear
2:15 PM 72.9 °F 45.7 °F 38% 30.10 in 7.0 mi SSW 5.8 mph - N/A   Clear
2:35 PM 72.5 °F 45.9 °F 39% 30.09 in 10.0 mi SW 4.6 mph - N/A   Clear
3:15 PM 72.7 °F 48.9 °F 43% 30.09 in 10.0 mi South 3.5 mph - N/A   Clear
3:35 PM 71.6 °F 46.6 °F 41% 30.07 in 10.0 mi Calm Calm - N/A   Clear
3:55 PM 73.9 °F 47.8 °F 40% 30.07 in 7.0 mi SSE 4.6 mph - N/A   Clear
4:35 PM 73.9 °F 48.7 °F 41% 30.04 in 10.0 mi South 3.5 mph - N/A   Clear
4:55 PM 74.3 °F 49.1 °F 41% 30.03 in 10.0 mi SE 5.8 mph - N/A   Clear
6:15 PM 71.6 °F 48.6 °F 44% 30.03 in 10.0 mi South 3.5 mph - N/A   Clear
7:55 PM 64.6 °F 56.1 °F 74% 30.04 in 10.0 mi Calm Calm - N/A Rain Light Rain
8:15 PM 63.0 °F 55.4 °F 76% 30.03 in 10.0 mi Calm Calm - N/A   Scattered Clouds
8:35 PM 62.4 °F 56.1 °F 80% 30.02 in 10.0 mi Calm Calm - N/A   Scattered Clouds
9:15 PM 60.6 °F 55.4 °F 83% 30.02 in 10.0 mi Calm Calm - N/A   Scattered Clouds
9:35 PM 59.0 °F 54.1 °F 84% 30.03 in 10.0 mi Calm Calm - N/A   Scattered Clouds
9:55 PM 61.9 °F 52.2 °F 70% 30.01 in 10.0 mi ESE 4.6 mph - N/A   Mostly Cloudy
10:15 PM 62.8 °F 52.5 °F 69% 30.02 in 10.0 mi Calm Calm - N/A   Overcast
10:35 PM 63.3 °F 51.8 °F 66% 30.02 in 10.0 mi SE 3.5 mph - N/A   Overcast
10:55 PM 62.8 °F 51.6 °F 67% 30.01 in 10.0 mi Calm Calm - N/A   Overcast
11:15 PM 62.4 °F 51.1 °F 66% 30.00 in 10.0 mi Calm Calm - N/A   Mostly Cloudy
11:35 PM 62.8 °F 50.9 °F 65% 30.01 in 10.0 mi SSE 3.5 mph - N/A   Overcast
11:55 PM 62.6 °F 50.9 °F 66% 30.00 in 10.0 mi SSE 4.6 mph - N/A   Mostly Cloudy